Regional Weather Roundup
Issued by NWS

Home | Current Version | Previous Version | Text Only | Print | Product List | Glossary Off
Versions: 1 2 3 4 5 6 7 8 9 10 11 12 13 14 15 16 17 18 19 20 21 22 23 24 25 26 27 28 29 30 31 32 33 34 35 36 37 38 39 40 41 42 43 44 45 46 47 48 49 50

000
ASUS43 KLOT 250703
RWRIL

ILLINOIS REGIONAL WEATHER ROUNDUP
NATIONAL WEATHER SERVICE CHICAGO/ROMEOVILLE IL
200 AM CDT WED MAY 25 2016

NOTE: "FAIR" INDICATES FEW OR NO CLOUDS BELOW 12,000 FEET WITH NO
SIGNIFICANT WEATHER AND/OR OBSTRUCTIONS TO VISIBILITY.

* THESE STATIONS ARE NOT UNDER NWS QUALITY CONTROL. THEY ALSO MAY NOT
  REPORT WEATHER SUCH AS PRECIPITATION OR FOG.

ILZ001-002-007-009-015-016-024-250800-
NORTHWEST ILLINOIS

CITY           SKY/WX    TMP DP  RH WIND       PRES   REMARKS
MOLINE         PTCLDY    68  61  78 CALM      29.97R
STERLING*      CLEAR     70  62  76 CALM      29.98R
$$

ILZ003-004-008-010-011-017-018-250800-
NORTH CENTRAL ILLINOIS

CITY           SKY/WX    TMP DP  RH WIND       PRES   REMARKS
ROCKFORD       CLOUDY    68  60  75 S5        29.99R
FREEPORT*      CLEAR     70  61  72 SW9       29.98S
ROCHELLE*      CLEAR     67  58  74 S8        29.99S
$$

ILZ005-006-012>014-019>023-250800-
NORTHEAST ILLINOIS

CITY           SKY/WX    TMP DP  RH WIND       PRES   REMARKS
CHICAGO-OHARE  CLOUDY    73  60  63 S12       29.99R
CHICAGO-MIDWAY CLOUDY    74  59  59 SW9       30.00R
AURORA         PTCLDY    71  61  70 S8        30.00R
LANSING*       MOCLDY    69  57  65 SW8       30.01R
WAUKEGAN       PTCLDY    69  58  67 SW5       29.98R
DUPAGE AIRPORT CLOUDY    70  59  68 S9        29.99R
WHEELING       PTCLDY    74  60  61 S10       30.00R
NORTHERLY ISL    N/A     74  57  55 S13         N/A
NORTHERLY ISL    N/A     74  57  55 S13         N/A
$$

LMZ740>746-250800-
SOUTHERN LAKE MICHIGAN

STATION/POSITION SKY/WX   TEMP    WIND        PRES    VSBY  WAVE
                          AIR SEA DIR/SP/G                  HT/PER
                          (F)     (DEG/KT/KT) (MB)    (MI)  (FT/S)
SOUTHERN BUOY              59 49  160/  8/  8 1014.3          0
WILMETTE HARBOR            66 57  220/  8/ 10   N/A           1/ 2
HARRISON CRIB              75     200/ 17/ 18   N/A
BURNHAM HARBOR             74     220/  8/ 13   N/A
CALUMET HARBOR             74     190/  6/ 10 1014.7S
BURNS HARBOR               72     190/ 10/ 14 1015.9S
MICHIGAN CITY              73     160/ 12/ 17   N/A
MICHIGAN CITY 6N           66 57  200/  8/ 10   N/A           1
ST. JOSEPH                 63 58  190/  6/  8   N/A           1/ 2
$$

ILZ025>027-034>036-040-047-049-050-058-095>099-250800-
WEST-CENTRAL ILLINOIS

CITY           SKY/WX    TMP DP  RH WIND       PRES   REMARKS
QUINCY         CLOUDY    63  61  93 S6        29.98S
MACOMB*        CLOUDY    66  62  86 S5        30.00S
PITTSFIELD*    PTCLDY    64  62  92 S5        30.00S
$$

ILZ028>032-037-038-041>044-048-051>054-059>061-250800-
CENTRAL ILLINOIS

CITY           SKY/WX    TMP DP  RH WIND       PRES   REMARKS
BLOOMINGTON    CLOUDY    69  64  84 SW10      30.03R
DECATUR        MOCLDY    67  62  84 S6        30.01S
PEORIA         PTCLDY    69  63  81 S6        29.99S
SPRINGFIELD    CLOUDY    67  63  87 S6        30.00F
TAYLORVILLE    NOT AVBL
$$

ILZ033-039-045-046-055>057-062-063-250800-
EAST-CENTRAL ILLINOIS

CITY           SKY/WX    TMP DP  RH WIND       PRES   REMARKS
CHAMPAIGN      CLOUDY    65  58  78 S7        30.03R
MATTOON        CLOUDY    67  59  75 S3        30.02S
$$

ILZ079-100>102-250800-
SOUTHWEST ILLINOIS

CITY           SKY/WX    TMP DP  RH WIND       PRES   REMARKS
CAHOKIA*       CLOUDY    65  61  87 S3        30.01F
SPARTA*        PTCLDY    64  62  94 SE3       30.02F
$$

ILZ064>066-069>071-074>076-080>082-084>086-088>090-092>094-250800-
SOUTH-CENTRAL ILLINOIS

CITY           SKY/WX    TMP DP  RH WIND       PRES   REMARKS
CARBONDALE     CLOUDY    64  61  90 CALM      30.02F
EFFINGHAM*     CLOUDY    66  65  97 CALM      30.04F
MT. VERNON     CLOUDY    63  57  82 CALM      30.04S
SALEM*         CLOUDY    66  64  90 CALM      30.03F
$$

ILZ067-068-072-073-078-083-087-091-250800-
SOUTHEAST ILLINOIS

CITY           SKY/WX    TMP DP  RH WIND       PRES   REMARKS
LAWRENCEVILLE  MOCLDY    67  61  81 S3        30.04R
FLORA*         MOCLDY    67  64  87 SW3       30.04R
HARRISBURG*    CLOUDY    64  61  93 CALM      30.04S
ROBINSON*      MOCLDY    63  59  87 S5        30.05R
$$

ABBREVIATIONS USED IN REMARKS
   TC - TEMPERATURE IN CELSIUS
  WCI - WIND CHILL INDEX
   HX - HEAT INDEX
  VSB - VISIBILITY
$$





USA.gov is the U.S. government's official web portal to all federal, state and local government web resources and services.